This demonstration page uses our WeatherBlox Daily Observations layout. Learn more.

Left ArrowRight Arrow

Hourly Observations for November 18, 2018

Temp ( °F °C ) Dew Point ( °F °C ) Humidity (%) Winds ( mph kmh ) Pressure ( in mb ) Visibility ( mi km ) Precip ( " mm )
1:57 am 01:57 Clear 11 -11.7 7 -13.9 84 84 NW 5 7 30.50 1033 10 16 0.00 0.00
2:57 am 02:57 Clear 11 -11.7 7 -13.9 84 84 W 6 9 30.49 1032 10 16 0.00 0.00
3:57 am 03:57 Clear 9 -12.8 6 -14.4 88 88 WSW 5 7 30.48 1032 10 16 0.00 0.00
5:57 am 05:57 Clear 10 -12.2 7 -13.9 87 87 WSW 5 7 30.45 1031 10 16 0.00 0.00
6:57 am 06:57 Clear 9 -12.8 7 -13.9 92 92 SW 3 6 30.44 1031 10 16 0.00 0.00
7:57 am 07:57 Sunny 10 -12.2 8 -13.3 92 92 SW 8 13 30.44 1031 10 16 0.00 0.03
8:57 am 08:57 Sunny 16 -8.9 12 -11.1 84 84 SW 8 13 30.40 1030 10 16 0.00 0.00
9:57 am 09:57 Sunny 22 -5.6 15 -9.4 75 75 SW 8 13 30.39 1029 10 16 0.00 0.00
10:57 am 10:57 Sunny 29 -1.7 19 -7.2 66 66 WSW 8 13 30.36 1028 10 16 0.00 0.00
11:57 am 11:57 Sunny 30 -1.1 21 -6.1 69 69 SW 9 15 30.32 1027 10 16 0.00 0.00
12:57 pm 12:57 Sunny 33 0.6 22 -5.6 64 64 SW 12 19 30.28 1025 10 16 0.00 0.00
1:57 pm 13:57 Sunny 33 0.6 22 -5.6 64 64 SW 15 24 30.24 1024 10 16 0.00 0.00
2:57 pm 14:57 Sunny 34 1.1 24 -4.4 67 67 SW 15 24 30.20 1023 10 16 0.00 0.00
3:57 pm 15:57 Sunny 36 2.2 26 -3.3 67 67 SW 12 19 30.18 1022 10 16 0.00 0.00
4:57 pm 16:57 Sunny 35 1.7 26 -3.3 70 70 SSW 8 13 30.16 1021 10 16 0.00 0.00
5:57 pm 17:57 Clear 30 -1.1 25 -3.9 82 82 SSW 7 11 30.16 1021 10 16 0.00 0.00
6:57 pm 18:57 Clear 27 -2.8 24 -4.4 89 89 SSW 5 7 30.15 1021 10 16 0.00 0.00
7:57 pm 19:57 Clear 27 -2.8 23 -5 85 85 SSW 8 13 30.14 1021 10 16 0.00 0.00
8:57 pm 20:57 Clear 28 -2.2 23 -5 81 81 SSW 13 20 30.11 1020 10 16 0.00 0.00
9:57 pm 21:57 Clear 30 -1.1 24 -4.4 79 79 SW 10 17 30.09 1019 10 16 0.00 0.00
10:57 pm 22:57 Clear 28 -2.2 23 -5 81 81 WSW 10 17 30.07 1018 10 16 0.00 0.00
11:57 pm 23:57 Clear 28 -2.2 23 -5 81 81 WSW 10 17 30.06 1018 10 16 0.00 0.00

Powered by AerisWeather